Volk, WI

10:16 AM CDT on September 23, 2017 (GMT -0500)
Volk

Weather History for KVOK - April, 2014

Change the Weather History Date:

Tuesday, April 22, 2014

  Actual Average Record
Temperature  
Mean Temperature 46 °F -  
Max Temperature 58 °F 58 °F 81 °F (2007)
Min Temperature 35 °F 38 °F 27 °F (2015)
Degree Days  
Heating Degree Days 19    
Moisture  
Dew Point 27 °F    
Average Humidity 47    
Maximum Humidity 70    
Minimum Humidity 29    
Precipitation  
Precipitation 0.00 in - - ()
Sea Level Pressure  
Sea Level Pressure 30.05 in    
Wind  
Wind Speed 8 mph (NNW)    
Max Wind Speed 18 mph    
Max Gust Speed 25 mph    
Visibility 10 miles    
Events      
Averages and records for this station are not official NWS values.
T = Trace of Precipitation, MM = Missing Value Source: NWS Daily Summary

Daily Weather History Graph

Daily Weather History Graph

Search for Another Location

Airport or City:

Trip Planner

Search our weather history database for the weather conditions in past years. The results will help you decide how hot, cold, wet, or windy it might be!

Date:

Astronomy

Apr. 22, 2014 Rise Set
Actual Time 6:06 AM CDT 7:53 PM CDT
Civil Twilight 5:35 AM CDT 8:24 PM CDT
Nautical Twilight 4:58 AM CDT 9:01 PM CDT
Astronomical Twilight 4:18 AM CDT 9:42 PM CDT
Moon 2:09 AM CDT (4/22) 12:41 PM CDT (4/22)
Length of Visible Light 14h 48m
Length of Day
13h 47m
Last Quarter, 46% of the Moon is Illuminated
Apr 22
Last Quarter
Apr 29
New
May 6
First Quarter
May 14
Full
May 21
Last Quarter

Hourly Weather History & Observations

Time (CDT) Temp. Windchill Dew Point Humidity Pressure Visibility Wind Dir Wind Speed Gust Speed Precip Events Conditions
12:58 AM 46.2 °F 42.7 °F 32.0 °F 58% 29.98 in 10.0 mi NNW 6.9 mph 18.4 mph N/A   Clear
1:58 AM 44.1 °F 40.1 °F 31.8 °F 62% 29.99 in 10.0 mi NW 6.9 mph - N/A   Clear
2:58 AM 41.9 °F 35.9 °F 31.5 °F 66% 29.99 in 10.0 mi NNW 10.4 mph 18.4 mph N/A   Clear
3:58 AM 39.9 °F 32.9 °F 28.6 °F 64% 30.02 in 10.0 mi NW 11.5 mph 20.7 mph N/A   Clear
4:58 AM 37.8 °F - 27.1 °F 66% 30.04 in 10.0 mi NNW 2.3 mph 21.9 mph N/A   Clear
5:58 AM 35.4 °F 30.5 °F 26.6 °F 70% 30.03 in 10.0 mi NW 5.8 mph - N/A   Clear
6:58 AM 36.5 °F 31.8 °F 27.3 °F 69% 30.06 in 10.0 mi NW 5.8 mph - N/A   Clear
7:58 AM 41.0 °F 34.7 °F 26.6 °F 57% 30.06 in 10.0 mi NW 10.4 mph 18.4 mph N/A   Clear
8:58 AM 42.8 °F 36.6 °F 26.6 °F 53% 30.06 in 10.0 mi NNW 11.5 mph 21.9 mph N/A   Clear
10:04 AM 46.4 °F 40.7 °F 26.6 °F 46% 30.04 in 10.0 mi NNW 12.7 mph - N/A   Clear
10:52 AM 48.2 °F - 26.6 °F 43% 30.03 in 10.0 mi NW 13.8 mph 25.3 mph N/A   Clear
10:55 AM 48.2 °F - 26.6 °F 43% 30.05 in 10.0 mi NNW 13.8 mph 25.3 mph N/A   Partly Cloudy
10:58 AM 48.9 °F - 27.0 °F 43% 30.05 in 10.0 mi NW 9.2 mph 25.3 mph N/A   Clear
11:55 AM 51.8 °F - 24.8 °F 35% 30.04 in 10.0 mi NNW 9.2 mph - N/A   Partly Cloudy
12:18 PM 53.6 °F - 26.6 °F 35% 30.02 in 10.0 mi WNW 11.5 mph 24.2 mph N/A   Partly Cloudy
12:58 PM 53.6 °F - 24.8 °F 33% 30.04 in 10.0 mi NNW 15.0 mph 24.2 mph N/A   Partly Cloudy
1:58 PM 55.4 °F - 24.8 °F 31% 30.03 in 10.0 mi NW 9.2 mph 21.9 mph N/A   Mostly Cloudy
2:58 PM 57.2 °F - 24.8 °F 29% 30.03 in 10.0 mi North 8.1 mph 25.3 mph N/A   Mostly Cloudy
3:58 PM 57.2 °F - 24.8 °F 29% 30.04 in 10.0 mi NW 11.5 mph 20.7 mph N/A   Scattered Clouds
4:58 PM 57.2 °F - 24.8 °F 29% 30.04 in 10.0 mi NNW 18.4 mph 23.0 mph N/A   Partly Cloudy
5:58 PM 55.4 °F - 23.0 °F 29% 30.05 in 10.0 mi North 12.7 mph 20.7 mph N/A   Partly Cloudy
6:58 PM 53.6 °F - 24.8 °F 33% 30.06 in 10.0 mi North 3.5 mph - N/A   Scattered Clouds
7:58 PM 50.0 °F - 24.8 °F 37% 30.06 in 10.0 mi Calm Calm - N/A   Scattered Clouds
8:58 PM 46.4 °F 44.3 °F 24.8 °F 43% 30.09 in 10.0 mi NNE 4.6 mph - N/A   Scattered Clouds
9:58 PM 41.2 °F - 27.7 °F 59% 30.12 in 10.0 mi Calm Calm - N/A   Clear
10:58 PM 41.5 °F 38.6 °F 25.2 °F 52% 30.10 in 10.0 mi NNE 4.6 mph - N/A   Clear
11:58 PM 37.0 °F - 25.0 °F 62% 30.15 in 10.0 mi Calm Calm - N/A   Clear